When you browse on this site, cookies collect data to enhance your experience and personalize the content and advertising you see.
Visit our Privacy Policy to learn more. By continuing to use the site, you agree to this use of cookies and data.
  • în România
  • Lista ţărilor
  • Pe 7 zile
  • Temperatura apei
  • Meteo pe hartă
  • Widget-uri
  • user-avatar
    Intrare

    Meteo pe oră la Mingachevir

    Astăzi, 2 Iunie, Marţi

    Timp Temperatura Precipitaţii Vânt Presiune Umiditate
    00:00 +23°C° 0 mm 2 m/s 748 mmHg 53%
    01:00 +21°C° 0 mm 2 m/s 748 mmHg 55%
    02:00 +22°C° 0 mm 1 m/s 747 mmHg 57%
    03:00 +21°C° 0 mm 1 m/s 747 mmHg 60%
    04:00 +20°C° 0 mm 0 m/s 747 mmHg 58%
    05:00 +20°C° 0 mm 0 m/s 747 mmHg 56%
    06:00 +21°C° 0 mm 0 m/s 747 mmHg 54%
    07:00 +23°C° 0 mm 0 m/s 747 mmHg 49%
    08:00 +27°C° 0 mm 1 m/s 747 mmHg 44%
    09:00 +30°C° 0 mm 1 m/s 747 mmHg 39%
    10:00 +31°C° 0 mm 2 m/s 746 mmHg 36%
    11:00 +34°C° 0 mm 2 m/s 746 mmHg 33%
    12:00 +36°C° 0 mm 3 m/s 746 mmHg 30%
    13:00 +37°C° 0 mm 4 m/s 745 mmHg 29%
    14:00 +39°C° 0 mm 5 m/s 745 mmHg 27%
    15:00 +39°C° 0 mm 6 m/s 744 mmHg 26%
    16:00 +35°C° 0.1 mm 6 m/s 744 mmHg 35%
    17:00 +32°C° 0.1 mm 7 m/s 745 mmHg 44%
    18:00 +28°C° 0.1 mm 8 m/s 745 mmHg 53%
    19:00 +28°C° 0 mm 7 m/s 745 mmHg 55%
    20:00 +27°C° 0 mm 5 m/s 745 mmHg 58%
    21:00 +26°C° 0 mm 4 m/s 746 mmHg 61%
    22:00 +26°C° 0 mm 4 m/s 745 mmHg 62%
    23:00 +25°C° 0 mm 3 m/s 745 mmHg 64%

    Mâine, 3 Iunie, Miercuri

    Timp Temperatura Precipitaţii Vânt Presiune Umiditate
    00:00 +24°C° 0 mm 3 m/s 744 mmHg 65%
    01:00 +23°C° 0 mm 4 m/s 744 mmHg 67%
    02:00 +22°C° 0 mm 4 m/s 744 mmHg 69%
    03:00 +22°C° 0 mm 5 m/s 745 mmHg 70%
    04:00 +23°C° 0 mm 5 m/s 745 mmHg 68%
    05:00 +23°C° 0 mm 5 m/s 745 mmHg 65%
    06:00 +25°C° 0 mm 5 m/s 745 mmHg 62%
    07:00 +27°C° 0 mm 5 m/s 744 mmHg 55%
    08:00 +29°C° 0 mm 5 m/s 744 mmHg 49%
    09:00 +32°C° 0 mm 5 m/s 744 mmHg 42%
    10:00 +34°C° 0 mm 5 m/s 744 mmHg 37%
    11:00 +35°C° 0 mm 5 m/s 744 mmHg 32%
    12:00 +37°C° 0 mm 5 m/s 744 mmHg 27%
    13:00 +38°C° 0 mm 4 m/s 744 mmHg 24%
    14:00 +40°C° 0 mm 4 m/s 744 mmHg 21%
    15:00 +39°C° 0 mm 3 m/s 743 mmHg 19%
    16:00 +36°C° 0.7 mm 4 m/s 744 mmHg 28%
    17:00 +33°C° 0.7 mm 5 m/s 745 mmHg 38%
    18:00 +28°C° 0.7 mm 6 m/s 745 mmHg 48%
    19:00 +27°C° 0.3 mm 6 m/s 746 mmHg 53%
    20:00 +26°C° 0.3 mm 5 m/s 746 mmHg 57%
    21:00 +23°C° 0.3 mm 5 m/s 747 mmHg 62%
    22:00 +23°C° 0.1 mm 4 m/s 747 mmHg 63%
    23:00 +23°C° 0.1 mm 4 m/s 747 mmHg 64%

    Poimâine, 4 Iunie, Joi

    Timp Temperatura Precipitaţii Vânt Presiune Umiditate
    00:00 +22°C° 0.1 mm 4 m/s 747 mmHg 66%
    01:00 +22°C° 0 mm 4 m/s 747 mmHg 68%
    02:00 +21°C° 0 mm 4 m/s 748 mmHg 70%
    03:00 +21°C° 0 mm 4 m/s 748 mmHg 73%
    04:00 +21°C° 0 mm 4 m/s 748 mmHg 70%
    05:00 +22°C° 0 mm 4 m/s 749 mmHg 67%
    06:00 +23°C° 0 mm 4 m/s 749 mmHg 64%
    07:00 +25°C° 0 mm 4 m/s 749 mmHg 57%
    08:00 +27°C° 0 mm 4 m/s 749 mmHg 51%
    09:00 +29°C° 0 mm 3 m/s 749 mmHg 45%
    10:00 +30°C° 0 mm 3 m/s 749 mmHg 42%
    11:00 +31°C° 0 mm 2 m/s 748 mmHg 38%
    12:00 +33°C° 0 mm 1 m/s 748 mmHg 35%
    13:00 +35°C° 0 mm 2 m/s 748 mmHg 33%
    14:00 +35°C° 0 mm 2 m/s 748 mmHg 31%
    15:00 +36°C° 0 mm 2 m/s 748 mmHg 29%
    16:00 +35°C° 0 mm 4 m/s 748 mmHg 32%
    17:00 +35°C° 0 mm 5 m/s 748 mmHg 36%
    18:00 +34°C° 0 mm 7 m/s 748 mmHg 40%
    19:00 +30°C° 0 mm 6 m/s 749 mmHg 46%
    20:00 +28°C° 0 mm 6 m/s 749 mmHg 53%
    21:00 +26°C° 0 mm 6 m/s 750 mmHg 60%
    22:00 +25°C° 0 mm 5 m/s 750 mmHg 63%
    23:00 +23°C° 0 mm 4 m/s 750 mmHg 66%

    5 Iunie, Vineri

    Timp Temperatura Precipitaţii Vânt Presiune Umiditate
    00:00 +24°C° 0 mm 3 m/s 750 mmHg 70%
    01:00 +23°C° 0 mm 2 m/s 750 mmHg 71%
    02:00 +23°C° 0 mm 2 m/s 750 mmHg 72%
    03:00 +22°C° 0 mm 1 m/s 750 mmHg 73%
    04:00 +22°C° 0 mm 3 m/s 751 mmHg 70%
    05:00 +23°C° 0 mm 4 m/s 751 mmHg 68%
    06:00 +23°C° 0 mm 6 m/s 751 mmHg 66%
    07:00 +26°C° 0 mm 6 m/s 751 mmHg 60%
    08:00 +28°C° 0 mm 5 m/s 751 mmHg 54%
    09:00 +29°C° 0 mm 5 m/s 751 mmHg 47%
    10:00 +32°C° 0 mm 5 m/s 751 mmHg 43%
    11:00 +33°C° 0 mm 4 m/s 751 mmHg 38%
    12:00 +35°C° 0 mm 4 m/s 751 mmHg 33%
    13:00 +35°C° 0.1 mm 4 m/s 751 mmHg 30%
    14:00 +36°C° 0.1 mm 4 m/s 751 mmHg 27%
    15:00 +37°C° 0.1 mm 4 m/s 751 mmHg 24%
    16:00 +36°C° 0 mm 4 m/s 751 mmHg 26%
    17:00 +35°C° 0 mm 3 m/s 751 mmHg 28%
    18:00 +34°C° 0 mm 3 m/s 751 mmHg 30%
    19:00 +32°C° 0 mm 4 m/s 752 mmHg 36%
    20:00 +29°C° 0 mm 4 m/s 753 mmHg 43%
    21:00 +26°C° 0 mm 5 m/s 754 mmHg 49%
    22:00 +26°C° 0 mm 4 m/s 754 mmHg 51%
    23:00 +25°C° 0 mm 3 m/s 754 mmHg 53%

    6 Iunie, Sâmbătă

    Timp Temperatura Precipitaţii Vânt Presiune Umiditate
    00:00 +24°C° 0 mm 2 m/s 754 mmHg 55%
    01:00 +23°C° 0 mm 2 m/s 754 mmHg 56%
    02:00 +23°C° 0 mm 2 m/s 754 mmHg 57%
    03:00 +23°C° 0 mm 2 m/s 754 mmHg 59%
    04:00 +23°C° 0 mm 2 m/s 755 mmHg 57%
    05:00 +24°C° 0 mm 2 m/s 755 mmHg 55%
    06:00 +24°C° 0 mm 2 m/s 755 mmHg 54%
    07:00 +26°C° 0 mm 3 m/s 755 mmHg 49%
    08:00 +28°C° 0 mm 4 m/s 755 mmHg 44%
    09:00 +29°C° 0 mm 5 m/s 755 mmHg 39%
    10:00 +30°C° 0 mm 5 m/s 754 mmHg 37%
    11:00 +32°C° 0 mm 5 m/s 754 mmHg 35%
    12:00 +33°C° 0 mm 5 m/s 754 mmHg 34%
    13:00 +34°C° 0 mm 5 m/s 753 mmHg 33%
    14:00 +34°C° 0 mm 4 m/s 753 mmHg 32%
    15:00 +34°C° 0 mm 4 m/s 753 mmHg 32%
    16:00 +34°C° 0 mm 4 m/s 753 mmHg 33%
    17:00 +33°C° 0 mm 4 m/s 753 mmHg 34%
    18:00 +33°C° 0 mm 4 m/s 753 mmHg 36%
    19:00 +29°C° 0.4 mm 4 m/s 754 mmHg 43%
    20:00 +27°C° 0.4 mm 4 m/s 754 mmHg 51%
    21:00 +25°C° 0.4 mm 4 m/s 755 mmHg 58%
    22:00 +24°C° 0.5 mm 3 m/s 755 mmHg 61%
    23:00 +24°C° 0.5 mm 3 m/s 755 mmHg 63%

    7 Iunie, Duminică

    Timp Temperatura Precipitaţii Vânt Presiune Umiditate
    00:00 +23°C° 0.5 mm 2 m/s 755 mmHg 66%
    01:00 +23°C° 0.1 mm 2 m/s 755 mmHg 66%
    02:00 +21°C° 0.1 mm 2 m/s 755 mmHg 67%
    03:00 +21°C° 0.1 mm 2 m/s 755 mmHg 68%
    04:00 +22°C° 0 mm 1 m/s 755 mmHg 66%
    05:00 +23°C° 0 mm 1 m/s 755 mmHg 63%
    06:00 +23°C° 0 mm 1 m/s 755 mmHg 61%
    07:00 +25°C° 0 mm 2 m/s 755 mmHg 54%
    08:00 +27°C° 0 mm 2 m/s 755 mmHg 46%
    09:00 +29°C° 0 mm 3 m/s 755 mmHg 38%
    10:00 +30°C° 0 mm 3 m/s 755 mmHg 36%
    11:00 +31°C° 0 mm 3 m/s 754 mmHg 33%
    12:00 +33°C° 0 mm 3 m/s 754 mmHg 30%
    13:00 +34°C° 0 mm 3 m/s 754 mmHg 29%
    14:00 +34°C° 0 mm 3 m/s 753 mmHg 28%
    15:00 +35°C° 0 mm 3 m/s 753 mmHg 27%
    16:00 +34°C° 0 mm 3 m/s 753 mmHg 28%
    17:00 +34°C° 0 mm 4 m/s 753 mmHg 30%
    18:00 +33°C° 0 mm 4 m/s 753 mmHg 31%
    19:00 +32°C° 0 mm 4 m/s 753 mmHg 35%
    20:00 +29°C° 0 mm 5 m/s 753 mmHg 38%
    21:00 +27°C° 0 mm 5 m/s 754 mmHg 41%
    22:00 +26°C° 0 mm 4 m/s 754 mmHg 44%
    23:00 +25°C° 0 mm 4 m/s 754 mmHg 47%
    Arată mai mult